Date,TemperatureHighF,TemperatureAvgF,TemperatureLowF,DewpointHighF,DewpointAvgF,DewpointLowF,HumidityHigh,HumidityAvg,HumidityLow,PressureMaxIn,PressureMinIn,WindSpeedMaxMPH,WindSpeedAvgMPH,GustSpeedMaxMPH,PrecipitationSumIn
2012-11-14,81,71,62,-100,-100,-100,0,0,100,0.00,40.00,6,1,7,0.00
2012-11-15,74,67,62,-100,-100,-100,0,0,100,0.00,40.00,4,1,8,0.00
2012-11-16,77,68,58,-100,-100,-100,0,0,100,0.00,40.00,7,2,9,0.00
2012-11-17,78,70,63,-100,-100,-100,0,0,100,0.00,40.00,12,-49,14,0.00
2012-11-18,78,71,65,-100,-100,-100,0,0,100,0.00,40.00,10,3,18,0.00
2012-11-19,80,70,64,-100,-100,-100,0,0,100,0.00,40.00,8,2,8,0.00
2012-11-20,81,69,58,-100,-100,-100,0,0,100,0.00,40.00,9,1,12,0.00
2012-11-21,83,72,60,-100,-100,-100,0,0,100,0.00,40.00,9,1,15,0.00
2012-11-22,83,73,64,-100,-100,-100,0,0,100,0.00,40.00,5,1,9,0.00
2012-11-23,85,71,61,-100,-100,-100,0,0,100,0.00,40.00,3,1,6,0.00
2012-11-24,86,72,59,-100,-100,-100,0,0,100,0.00,40.00,10,1,10,0.00
2012-11-25,82,71,64,-100,-100,-100,0,0,100,0.00,40.00,3,1,7,0.00
2012-11-26,70,68,65,-100,-100,-100,0,0,100,0.00,40.00,3,1,7,0.00
2012-11-27,80,70,59,-100,-100,-100,0,0,100,0.00,40.00,3,1,7,0.00
2012-11-28,76,70,62,-100,-100,-100,0,0,100,0.00,40.00,8,2,16,0.00
2012-11-29,79,72,65,-100,-100,-100,0,0,100,0.00,40.00,13,3,22,0.00
2012-11-30,74,69,62,-100,-100,-100,0,0,100,0.00,40.00,13,2,14,0.00
2012-12-1,79,72,68,-100,-100,-100,0,0,100,0.00,40.00,10,-43,17,0.00
2012-12-2,77,71,68,-100,-100,-100,0,0,100,0.00,40.00,15,4,21,0.00
2012-12-3,79,72,65,-100,-100,-100,0,0,100,0.00,40.00,11,2,14,0.00
2012-12-4,79,71,63,-100,-100,-100,0,0,100,0.00,40.00,10,2,10,0.00
2012-12-5,80,70,59,-100,-100,-100,0,0,100,0.00,40.00,2,0,9,0.00
2012-12-6,81,73,69,-100,-100,-100,0,0,100,0.00,40.00,12,3,19,0.00
2012-12-7,83,72,64,-100,-100,-100,0,0,100,0.00,40.00,10,3,13,0.00
2012-12-8,72,64,60,-100,-100,-100,0,0,100,0.00,40.00,14,2,14,0.00
2012-12-9,80,69,58,-100,-100,-100,0,0,100,0.00,40.00,6,2,10,0.00
2012-12-10,71,64,54,-100,-100,-100,0,0,100,0.00,40.00,6,2,7,0.00
2012-12-11,72,60,54,-100,-100,-100,0,0,100,0.00,40.00,7,2,8,0.00
2012-12-12,67,56,49,-100,-100,-100,0,0,100,0.00,40.00,10,2,10,0.00
2012-12-13,63,59,57,-100,-100,-100,0,0,100,0.00,40.00,7,1,9,0.00
2012-12-14,63,57,50,-100,-100,-100,0,0,100,0.00,40.00,12,3,15,0.00
2012-12-15,65,58,51,-100,-100,-100,0,0,100,0.00,40.00,11,2,14,0.00
2012-12-16,65,58,51,-100,-100,-100,0,0,100,0.00,40.00,11,2,11,0.00
2012-12-17,67,61,56,-100,-100,-100,0,0,100,0.00,40.00,8,2,10,0.00
2012-12-18,62,57,52,-100,-100,-100,0,0,100,0.00,40.00,16,2,21,0.00
2012-12-19,62,54,47,-100,-100,-100,0,0,100,0.00,40.00,16,2,16,0.00
2012-12-20,59,48,38,-100,-100,-100,0,0,100,0.00,40.00,5,1,5,0.00
2012-12-21,65,52,40,-100,-100,-100,0,0,100,0.00,40.00,8,2,8,0.00
2012-12-22,67,56,43,-100,-100,-100,0,0,100,0.00,40.00,7,1,7,0.00
2012-12-23,67,60,52,-100,-100,-100,0,0,100,0.00,40.00,4,1,9,0.00
2012-12-24,72,64,54,-100,-100,-100,0,0,100,0.00,40.00,12,3,20,0.00
2012-12-25,64,56,47,-100,-100,-100,0,0,100,0.00,40.00,4,1,6,0.00
2012-12-26,66,53,43,-100,-100,-100,0,0,100,0.00,40.00,6,1,16,0.00
2012-12-27,65,58,52,-100,-100,-100,0,0,100,0.00,40.00,14,4,14,0.00
2012-12-28,65,53,43,-100,-100,-100,0,0,100,0.00,40.00,6,2,10,0.00
2012-12-29,62,52,44,-100,-100,-100,0,0,100,0.00,40.00,8,2,9,0.00
2012-12-30,61,54,49,-100,-100,-100,0,0,100,0.00,40.00,14,2,14,0.00
2012-12-31,63,53,46,-100,-100,-100,0,0,100,0.00,40.00,6,1,10,0.00
2013-1-1,61,52,43,-100,-100,-100,0,0,100,0.00,40.00,4,1,5,0.00